Location: Nitra
(48.3167°N, 18.0833°E)
Time: 02:43:51
(UTC+01:00)

Daily predictions for brighter satellites

Satellite Brightness Start Highest point End
(mag) Time Altitude Azimuth Time Altitude Azimuth Time Altitude Azimuth
Cosmos 1980 Rocket 4.1 03:41:50 24° SE 03:41:50 24° SE 03:44:02 10° SE
Meteor 2-4 Rocket 4.4 04:08:22 48° ESE 04:08:22 48° ESE 04:12:47 10° SSE
ATLAS 5 CENTAUR R/B 4.2 04:09:57 18° NNE 04:09:57 18° NNE 04:13:34 10° NE
USA 267 3.2 04:10:37 10° NE 04:17:10 79° SE 04:17:37 75° S
SL-16 R/B 3.1 04:17:16 41° NNE 04:18:15 45° NE 04:23:40 10° SE
Meteor 1-11 Rocket 4.2 04:17:26 10° S 04:23:14 61° E 04:29:00 10° NNE
Cosmos 2322 Rocket 3.0 04:22:49 41° NNE 04:24:00 47° NE 04:29:30 10° SE
Cosmos 2344 4.5 04:24:33 44° NW 04:29:02 77° SW 04:43:13 10° SSE
BREEZE-M DEB (TANK) 4.4 04:31:22 34° SSE 04:31:22 34° SSE 04:34:23 10° ESE
SKYMED 2 3.8 04:42:23 10° SSE 04:46:16 65° ESE 04:46:16 65° ESE
Meteor 1-5 Rocket 4.5 04:42:50 10° S 04:48:10 63° E 04:53:26 10° NNE
Timation 2 Rocket 4.4 04:42:47 10° SSW 04:49:36 69° ESE 04:56:25 10° NNE
Cosmos 2082 Rocket 2.9 04:51:13 38° NNW 04:51:13 38° NNW 04:55:10 10° NNE
USA 234 3.2 04:47:37 10° SE 04:54:08 68° SW 04:55:47 51° W
Cosmos 1833 Rocket 3.5 04:55:57 34° NNW 04:55:57 34° NNW 04:59:41 10° NNE
Cosmos 1092 Rocket 4.3 04:55:36 10° S 05:01:37 65° E 05:07:44 10° NNE
EO 1 Del DPAF 3.7 05:05:08 10° S 05:08:04 51° S 05:08:04 51° S
PAYLOAD A 4.4 05:04:23 10° NNE 05:09:51 70° ESE 05:15:11 10° S
Okean 1-7 Rocket 4.3 05:06:48 14° N 05:10:36 55° ENE 05:15:04 10° SSE
CZ-4B R/B 3.7 05:05:20 10° N 05:09:34 40° NW 05:09:34 40° NW
IRS-1C Rocket 4.4 05:06:47 10° N 05:11:08 45° NW 05:11:08 45° NW
Cosmos 2333 Rocket 4.4 05:09:15 10° N 05:13:19 19° NE 05:17:22 10° E
Cosmos 1300 Rocket 3.3 05:11:32 10° SSW 05:15:50 73° W 05:20:11 10° N
SeaSat 1 2.4 05:11:01 10° NNE 05:15:54 60° NW 05:17:14 44° WSW
CZ-4C R/B 2.3 05:12:11 16° SSW 05:16:31 78° SE 05:22:39 10° NE
COSMOS 2428 4.4 05:12:09 11° N 05:16:50 29° NE 05:21:45 10° ESE
Meteor 1-23 Rocket 4.1 05:14:17 30° NNW 05:16:58 62° W 05:22:25 10° S
Meteor 1-4 Rocket 3.1 05:14:04 10° S 05:17:48 62° E 05:21:34 10° NNE
Cosmos 1025 Rocket 2.9 05:17:10 29° N 05:19:18 87° E 05:23:35 10° S
ERBS 4.4 05:20:52 18° NNE 05:20:52 18° NNE 05:22:53 10° NE
Cosmos 2360 Rocket 2.8 05:16:27 18° NNW 05:20:39 55° ENE 05:26:12 10° SE
Cosmos 1980 Rocket 3.5 05:23:41 23° SW 05:23:41 23° SW 05:26:39 10° SSW
Meteor 2-11 Rocket 4.4 05:19:06 10° N 05:25:15 89° ENE 05:31:21 10° S
NOAA 6 3.9 05:20:58 10° N 05:26:05 71° WNW 05:31:12 10° SSW
deb Kosmos-1763 4.2 05:24:33 10° SSW 05:28:16 74° ESE 05:32:01 10° NNE
Cosmos 1500 3.3 05:25:29 10° S 05:29:19 75° E 05:33:10 10° NNE
Cosmos 2219 Rocket 4.0 05:25:14 10° N 05:29:51 25° NE 05:34:29 10° E
CZ-2C R/B 2.5 05:25:52 10° NNE 05:30:46 75° ESE 05:35:29 10° S
COSMO-SKYMED 1 3.0 05:30:49 10° SSW 05:34:52 38° W 05:34:52 38° W
CZ-4 R/B 4.0 05:34:04 10° NE 05:37:30 24° E 05:40:56 10° SSE
Okean-O 2.6 05:33:38 10° N 05:38:00 55° WNW 05:42:20 10° SSW
Cosmos 2237 Rocket 4.3 05:41:33 10° N 05:45:40 20° NE 05:49:46 10° E
Cosmos 1184 Rocket 2.7 05:44:44 38° NNW 05:45:50 64° W 05:49:07 10° S
Cosmos 773 Rocket 4.0 05:43:05 10° SW 05:48:09 58° WNW 05:53:17 10° NNE
Okean 1 Rocket 3.2 05:46:55 10° SSW 05:51:10 50° WNW 05:55:30 10° N
IDEFIX/ARIANE 42P 2.6 05:46:13 10° N 05:51:19 58° WNW 05:56:26 10° SSW
BREEZE-M DEB (TANK) 3.6 05:49:51 16° SW 05:51:32 41° SSE 05:55:51 10° ENE
MSX 3.8 05:48:00 10° NNE 05:53:48 86° WNW 05:59:32 10° SSW
SJ-12 3.8 05:51:39 10° NNE 05:55:44 84° WNW 05:59:48 10° SSW
ATLAS 5 CENTAUR R/B 3.5 05:51:30 14° NNW 05:55:58 35° NE 06:01:41 10° E
Okean 2 3.9 05:55:12 24° NW 05:56:56 36° W 06:00:42 10° SSW
Cosmos 1680 Rocket 3.6 05:52:47 10° SSW 05:57:59 78° ESE 06:03:14 10° NNE
USA 267 3.5 05:53:44 10° NE 06:00:01 52° NNW 06:04:58 17° W
Cosmos 1666 3.5 05:57:53 10° S 06:01:37 53° E 06:05:21 10° NNE
SL-16 R/B 2.9 05:59:11 20° NW 06:02:14 35° WSW 06:07:18 10° S
Cosmos 192 4.5 05:59:07 10° SW 06:03:51 49° WNW 06:08:39 10° NNE
Cosmos 1975 2.7 06:01:06 10° SSW 06:05:04 77° W 06:09:05 10° N
COSMOS 2441 4.3 06:01:12 10° N 06:06:02 69° WNW 06:10:48 10° SSW
MINOTAUR R/B 4.4 06:06:33 38° WNW 06:06:40 39° WNW 06:08:59 10° NNE
Cosmos 1892 Rocket 3.5 06:03:25 10° NNW 06:07:49 74° W 06:12:10 10° S
Cosmos 2322 Rocket 2.9 06:04:41 19° NW 06:07:53 32° WSW 06:12:51 10° SSW
YAOGAN 1 4.4 06:04:08 10° NNE 06:08:06 34° E 06:12:03 10° SSE
Cosmos 389 Rocket 2.8 06:06:22 10° S 06:09:58 71° E 06:13:34 10° NNE
Cosmos 1371 Rocket 4.0 06:06:48 10° NNW 06:12:04 85° WSW 06:17:15 10° SSE
Cosmos 2285 Rocket 4.0 06:07:13 10° SSW 06:13:32 81° WNW 06:19:53 10° NNE
CSL-04 Rocket 4.0 06:08:03 10° NNE 06:13:39 75° ESE 06:19:10 10° S
BREEZE-M DEB (TANK) 2.6 06:12:16 15° WNW 06:18:02 68° SSW 06:20:31 10° ESE
Cosmos 2237 4.2 06:12:43 10° NNW 06:18:27 84° WSW 06:24:09 10° SSE
Thor Agena Rocket 3.8 06:14:13 10° S 06:19:05 48° W 06:24:01 10° NNW
ATLAS CENTAUR R/B 3.3 06:20:24 10° S 06:23:40 30° ESE 06:26:56 10° ENE
Cosmos 1238 Rocket 4.4 06:17:14 10° N 06:23:56 70° ENE 06:29:57 10° SSE
SMAP 3.1 06:19:32 10° NNE 06:24:14 88° E 06:28:54 10° SSW
Cosmos 923 Rocket 4.2 06:24:37 10° SW 06:29:40 48° WNW 06:34:44 10° NNE
S3M 4.0 06:25:12 10° NNW 06:31:18 64° W 06:37:27 10° S
Cosmos 2322 3.8 06:25:50 10° NW 06:31:27 60° WSW 06:36:59 10° S
Cosmos 2082 Rocket 3.9 06:33:06 11° NW 06:35:14 13° NNW 06:37:58 10° N
Cosmos 1602 Rocket 3.8 06:31:37 10° N 06:35:57 73° E 06:40:15 10° SSE
ALOS 3.9 06:33:07 10° NNE 06:37:32 40° E 06:41:54 10° SSE
Cosmos 1833 Rocket 4.5 06:37:41 10° NW 06:39:50 12° NNW 06:42:05 10° N
Cosmos 1833 4.1 06:34:17 10° SSW 06:39:51 75° WNW 06:45:30 10° NNE
SL-16 R/B 4.1 06:36:38 10° N 06:41:01 22° NE 06:45:23 10° E
Cosmos 1484 Rocket 3.1 06:38:01 10° N 06:41:46 44° WNW 06:45:25 10° SW
Cosmos 1842 3.2 06:39:10 10° NNW 06:43:08 75° W 06:47:05 10° S
APEX 3.6 06:40:34 10° SW 06:44:01 45° NW 06:48:27 10° NNE
SWAS 4.4 06:40:51 10° SW 06:45:10 76° WNW 06:49:32 10° NNE
Cosmos 1743 3.1 06:42:18 10° SSW 06:45:54 40° WNW 06:49:33 10° N
Cosmos 2112 Rocket 4.1 06:41:00 10° SW 06:46:02 51° WNW 06:51:09 10° NNE
Aureole 2 Rocket 2.2 06:43:15 10° NNW 06:46:40 68° WSW 06:49:47 10° SSE
Cosmos 1455 Rocket 3.2 06:43:29 10° SSW 06:47:51 54° WNW 06:52:16 10° N
Cosmos 2056 Rocket 3.7 06:44:26 10° NNW 06:49:25 53° WSW 06:54:24 10° S
Meteor 1-21 4.3 06:44:24 10° NNW 06:49:53 59° W 06:55:23 10° S
CORIOLIS 4.1 06:46:45 10° N 06:52:06 72° WNW 06:57:24 10° SSW
Cosmos 1544 Rocket 3.9 06:47:50 10° SSW 06:52:07 46° WNW 06:56:25 10° N
SeaSat 1 4.1 06:49:53 10° N 06:52:35 15° NW 06:55:17 10° WNW
Meteor 1-4 Rocket 4.5 06:51:34 10° W 06:53:21 13° WNW 06:55:07 10° NW
ERBS 3.4 06:54:35 10° NW 06:57:44 35° NNE 07:00:52 10° E
Cosmos 2333 Rocket 2.5 06:52:47 10° NNW 06:58:36 77° ENE 07:04:21 10° SSE
Cosmos 1340 Rocket 3.4 06:56:45 10° NNW 07:00:24 37° W 07:04:04 10° SSW
Cosmos 1655 Rocket 4.4 06:54:38 10° SW 07:00:28 40° WNW 07:06:23 10° N
COSMOS 2428 2.9 06:55:51 10° NNW 07:01:30 61° WSW 07:07:08 10° S
Cosmos 1452 Rocket 3.7 06:56:43 10° NNW 07:02:03 85° ENE 07:07:21 10° SSE
